1522641600.54,11499,8.75,71888.3,-12.91,-13.47,-13.37,0,*68
1522641601.8,11500,8.75,71896.0,-12.91,-13.47,-13.37,0,*69
1522641603.03,11501,8.75,71886.3,-12.91,-13.47,-13.47,0,*6F
1522641604.28,11502,8.75,71878.8,-12.95,-13.51,-13.43,0,*6B
1522641605.53,11503,8.75,71874.5,-12.95,-13.51,-13.43,0,*6A
1522641606.78,11504,8.75,71864.8,-12.95,-13.51,-13.43,0,*6D
1522641608.02,11505,8.75,71880.3,-12.95,-13.43,-13.43,0,*6F
1522641609.28,11506,8.69,71890.5,-12.95,-13.51,-13.51,0,*6C
1522641610.51,11507,8.75,71900.0,-12.91,-13.47,-13.47,0,*69
1522641611.76,11508,8.69,71908.3,-12.95,-13.55,-13.51,0,*66
1522641613.03,11509,8.69,71898.3,-12.91,-13.47,-13.33,0,*64
1522641614.26,11510,8.69,71878.8,-12.91,-13.47,-13.47,0,*6F
1522641615.52,11511,8.69,71884.5,-12.91,-13.47,-13.37,0,*69
1522641616.81,11512,8.69,71876.0,-12.91,-13.37,-13.33,0,*69
1522641618.04,11513,8.69,71868.0,-12.91,-13.47,-13.47,0,*6C
1522641619.29,11514,8.75,71852.8,-12.95,-13.51,-13.43,0,*6C
1522641620.56,11515,8.75,71842.0,-12.91,-13.47,-13.37,0,*6D
1522641621.79,11516,8.75,71840.8,-12.91,-13.47,-13.43,0,*6D
1522641623.03,11517,8.69,71836.0,-12.95,-13.43,-13.43,0,*6C
1522641624.27,11518,8.69,71832.0,-12.91,-13.47,-13.47,0,*67
1522641625.52,11519,8.69,71838.5,-12.95,-13.51,-13.43,0,*61
1522641626.75,11520,8.69,71852.0,-12.91,-13.47,-13.47,0,*6C
1522641628.0,11521,8.69,71854.5,-12.95,-13.43,-13.51,0,*6A
1522641629.25,11522,8.69,71868.3,-12.95,-13.51,-13.43,0,*69
1522641630.5,11523,8.69,71882.8,-12.95,-13.51,-13.43,0,*68
1522641631.73,11524,8.75,71856.8,-12.91,-13.47,-13.47,0,*68
1522641632.99,11525,8.75,71864.5,-12.91,-13.47,-13.37,0,*6E
1522641634.22,11526,8.75,71866.3,-12.91,-13.47,-13.47,0,*6A
1522641635.48,11527,8.69,71862.3,-12.91,-13.37,-13.47,0,*6C
1522641636.74,11528,8.75,71858.8,-12.95,-13.51,-13.55,0,*64
1522641637.99,11529,8.69,71858.5,-12.95,-13.51,-13.43,0,*62
1522641639.24,11530,8.75,71868.0,-12.95,-13.51,-13.51,0,*69
1522641640.48,11531,8.75,71870.0,-12.91,-13.47,-13.47,0,*6C
1522641641.71,11532,8.75,71862.5,-12.91,-13.47,-13.47,0,*6F
1522641642.94,11533,8.69,71848.0,-12.91,-13.47,-13.51,0,*69
1522641644.18,11534,8.69,71836.3,-12.91,-13.47,-13.47,0,*69
1522641645.41,11535,8.75,71810.3,-12.91,-13.47,-13.47,0,*68
1522641646.65,11536,8.69,71844.0,-12.95,-13.43,-13.43,0,*6F
1522641647.91,11537,8.75,71856.0,-12.91,-13.47,-13.37,0,*6D
1522641649.18,11538,8.69,71838.0,-12.91,-13.47,-13.37,0,*62
1522641650.41,11539,8.75,71856.8,-12.91,-13.47,-13.47,0,*64
1522641651.66,11540,8.75,71826.3,-12.95,-13.51,-13.51,0,*6E
1522641652.92,11541,8.75,71846.8,-12.95,-13.51,-13.51,0,*6F
1522641654.16,11542,8.69,71830.5,-12.91,-13.51,-13.47,0,*6F
1522641655.41,11543,8.75,71836.5,-12.95,-13.55,-13.51,0,*69
1522641656.66,11544,8.69,71858.3,-12.95,-13.51,-13.43,0,*69
1522641657.91,11545,8.75,71872.0,-12.95,-13.51,-13.51,0,*6B
1522641659.15,11546,8.69,71876.3,-12.91,-13.47,-13.51,0,*6B
1522641660.4,11547,8.69,71872.8,-12.95,-13.55,-13.51,0,*6D
1522641661.64,11548,8.69,71862.0,-12.91,-13.51,-13.47,0,*65
1522641662.9,11549,8.69,71864.8,-12.95,-13.51,-13.51,0,*67
1522641664.15,11550,8.75,71852.8,-12.95,-13.51,-13.51,0,*6F
1522641665.38,11551,8.69,71838.0,-12.91,-13.47,-13.47,0,*6A
1522641666.64,11552,8.75,71820.8,-12.95,-13.51,-13.51,0,*6D
1522641667.89,11553,8.69,71852.5,-12.95,-13.51,-13.43,0,*6F
1522641669.14,11554,8.69,71858.8,-12.95,-13.55,-13.51,0,*6F
1522641670.39,11555,8.75,71856.5,-12.95,-13.55,-13.43,0,*6D
1522641671.63,11556,8.69,71870.5,-12.95,-13.43,-13.43,0,*69
1522641672.89,11557,8.69,71872.5,-12.95,-13.51,-13.51,0,*68
1522641674.14,11558,8.69,71878.5,-12.95,-13.51,-13.51,0,*67
1522641675.4,11559,8.69,71884.0,-12.95,-13.51,-13.51,0,*66
1522641676.63,11560,8.69,71890.3,-12.91,-13.47,-13.47,0,*68
1522641677.86,11561,8.69,71894.3,-12.91,-13.47,-13.47,0,*69
1522641679.11,11562,8.69,71892.0,-12.95,-13.51,-13.51,0,*6E
1522641680.36,11563,8.75,71902.0,-12.95,-13.51,-13.43,0,*6C
1522641681.62,11564,8.69,71902.3,-12.95,-13.51,-13.55,0,*6C
1522641682.88,11565,8.69,71894.0,-12.91,-13.47,-13.37,0,*6A
1522641684.13,11566,8.69,71892.0,-12.95,-13.55,-13.43,0,*6D
1522641685.37,11567,8.69,71888.8,-12.91,-13.51,-13.47,0,*68
1522641686.62,11568,8.69,71872.8,-12.95,-13.51,-13.43,0,*67
1522641687.88,11569,8.75,71874.3,-12.91,-13.47,-13.37,0,*66
1522641689.13,11570,8.69,71870.0,-12.95,-13.43,-13.51,0,*6E
1522641690.39,11571,8.69,71866.3,-12.91,-13.33,-13.47,0,*6B
1522641691.64,11572,8.69,71880.3,-12.95,-13.55,-13.51,0,*6B
1522641692.88,11573,8.69,71878.5,-12.95,-13.43,-13.43,0,*6E
1522641694.13,11574,8.69,71882.8,-12.95,-13.51,-13.51,0,*69
1522641695.4,11575,8.69,71888.3,-12.91,-13.47,-13.37,0,*6B
1522641696.65,11576,8.75,71900.5,-12.95,-13.51,-13.43,0,*68
1522641697.88,11577,8.69,71904.5,-12.91,-13.47,-13.47,0,*6E
1522641699.11,11578,8.69,71896.5,-12.91,-13.47,-13.47,0,*61
1522641700.36,11579,8.69,71886.8,-12.95,-13.51,-13.43,0,*67
1522641701.61,11580,8.69,71876.8,-12.95,-13.55,-13.43,0,*65
1522641702.84,11581,8.69,71898.5,-12.91,-13.47,-13.47,0,*67
1522641704.08,11582,8.75,71904.0,-12.91,-13.51,-13.47,0,*63
1522641705.31,11583,8.69,71896.3,-12.91,-13.47,-13.47,0,*65
1522641706.54,11584,8.75,71896.0,-12.91,-13.47,-13.47,0,*62
1522641707.78,11585,8.69,71872.8,-12.95,-13.43,-13.43,0,*67
1522641709.04,11586,8.75,71868.0,-12.95,-13.51,-13.43,0,*67
1522641710.27,11587,8.69,71864.8,-12.91,-13.47,-13.47,0,*61
1522641711.52,11588,8.75,71872.0,-12.95,-13.51,-13.51,0,*6A
1522641712.77,11589,8.69,71876.8,-12.95,-13.43,-13.51,0,*68
1522641714.02,11590,8.69,71860.3,-12.95,-13.51,-13.43,0,*60
1522641715.25,11591,8.69,71872.5,-12.91,-13.47,-13.47,0,*66
1522641716.5,11592,8.75,71874.5,-12.95,-13.55,-13.43,0,*66
1522641717.75,11593,8.75,71874.0,-12.95,-13.51,-13.43,0,*63
1522641719.0,11594,8.69,71878.0,-12.95,-13.51,-13.43,0,*64
1522641720.25,11595,8.69,71886.0,-12.95,-13.51,-13.43,0,*65
1522641721.51,11596,8.69,71894.0,-12.91,-13.37,-13.47,0,*66
1522641722.8,11597,8.69,71896.8,-12.91,-13.37,-13.37,0,*60
1522641724.09,11598,8.69,71886.5,-12.91,-13.37,-13.37,0,*6F
1522641725.33,11599,8.75,71884.8,-12.91,-13.47,-13.47,0,*6E
1522641726.56,11600,8.69,71880.0,-12.91,-13.47,-13.47,0,*6D
1522641727.81,11601,8.69,71882.5,-12.95,-13.51,-13.43,0,*6B
1522641729.06,11602,8.69,71890.5,-12.95,-13.51,-13.55,0,*6F
1522641730.32,11603,8.69,71900.8,-12.91,-13.47,-13.37,0,*69
1522641731.59,11604,8.75,71884.5,-12.91,-13.47,-13.33,0,*6A
1522641732.84,11605,8.69,71880.5,-12.95,-13.43,-13.51,0,*6F
1522641734.09,11606,8.75,71892.0,-12.95,-13.51,-13.51,0,*6F
1522641735.36,11607,8.69,71894.5,-12.95,-13.37,-13.47,0,*69
1522641736.62,11608,8.69,71896.3,-12.95,-13.51,-13.51,0,*61
1522641737.85,11609,8.69,71894.0,-12.91,-13.47,-13.47,0,*64
1522641739.12,11610,8.69,71888.5,-12.91,-13.51,-13.37,0,*6C
1522641740.36,11611,8.75,71884.0,-12.95,-13.43,-13.43,0,*69
1522641741.61,11612,8.69,71890.3,-12.95,-13.55,-13.43,0,*6D
1522641742.86,11613,8.69,71888.8,-12.95,-13.51,-13.51,0,*6B
1522641744.11,11614,8.69,71886.5,-12.95,-13.55,-13.51,0,*68
1522641745.37,11615,8.69,71892.5,-12.95,-13.51,-13.51,0,*6D
1522641746.61,11616,8.69,71890.8,-12.91,-13.51,-13.47,0,*6D
1522641747.86,11617,8.69,71882.8,-12.95,-13.51,-13.51,0,*6F
1522641749.12,11618,8.69,71886.3,-12.95,-13.51,-13.43,0,*63
1522641750.37,11619,8.69,71892.8,-12.95,-13.55,-13.51,0,*65
1522641751.62,11620,8.69,71894.5,-12.95,-13.51,-13.51,0,*6B
1522641752.88,11621,8.69,71888.8,-12.95,-13.51,-13.51,0,*6A
1522641754.13,11622,8.69,71892.3,-12.95,-13.51,-13.51,0,*69
1522641755.4,11623,8.69,71896.0,-12.95,-13.55,-13.37,0,*6C
1522641756.65,11624,8.69,71898.5,-12.95,-13.51,-13.43,0,*6C
1522641757.93,11625,8.69,71902.8,-12.95,-13.51,-13.37,0,*6E
1522641759.18,11626,8.69,71904.8,-12.95,-13.55,-13.51,0,*69
1522641760.43,11627,8.69,71904.8,-12.95,-13.55,-13.51,0,*68
1522641761.69,11628,8.69,71908.3,-12.95,-13.51,-13.51,0,*63
1522641762.94,11629,8.69,71910.8,-12.95,-13.51,-13.51,0,*62
1522641764.19,11630,8.69,71912.0,-12.95,-13.43,-13.55,0,*6D
1522641765.44,11631,8.69,71908.8,-12.95,-13.55,-13.51,0,*6F
1522641766.69,11632,8.69,71910.0,-12.95,-13.51,-13.51,0,*68
1522641767.95,11633,8.69,71910.5,-12.95,-13.51,-13.43,0,*6A
1522641769.2,11634,8.69,71914.3,-12.95,-13.51,-13.51,0,*6E
1522641770.46,11635,8.69,71910.0,-12.95,-13.51,-13.51,0,*6F
1522641771.71,11636,8.69,71904.5,-12.95,-13.51,-13.51,0,*6C
1522641772.96,11637,8.69,71908.3,-12.95,-13.51,-13.43,0,*6E
1522641774.22,11638,8.69,71912.3,-12.91,-13.47,-13.37,0,*61
1522641775.47,11639,8.69,71908.0,-12.95,-13.51,-13.43,0,*60
1522641776.72,11640,8.69,71908.5,-12.91,-13.51,-13.51,0,*69
1522641777.98,11641,8.75,71912.8,-12.95,-13.51,-13.55,0,*68
1522641779.23,11642,8.69,71916.3,-12.95,-13.51,-13.51,0,*6F
1522641780.47,11643,8.75,71922.5,-12.91,-13.47,-13.47,0,*6A
1522641781.73,11644,8.69,71908.5,-12.91,-13.47,-13.37,0,*6A
1522641782.98,11645,8.69,71914.3,-12.95,-13.51,-13.43,0,*6B
1522641784.23,11646,8.69,71904.8,-12.95,-13.51,-13.43,0,*68
1522641785.48,11647,8.69,71898.8,-12.95,-13.55,-13.43,0,*6D
1522641786.72,11648,8.69,71878.8,-12.95,-13.43,-13.51,0,*66
1522641787.97,11649,8.69,71876.8,-12.95,-13.55,-13.51,0,*60
1522641789.22,11650,8.69,71878.3,-12.95,-13.51,-13.43,0,*6F
1522641790.47,11651,8.69,71872.0,-12.95,-13.51,-13.43,0,*6E
1522641791.73,11652,8.69,71874.0,-12.95,-13.51,-13.51,0,*6E
1522641792.98,11653,8.69,71878.0,-12.95,-13.51,-13.51,0,*6F
1522641794.23,11654,8.69,71878.5,-12.95,-13.55,-13.51,0,*6C
1522641795.49,11655,8.69,71874.8,-12.95,-13.51,-13.51,0,*69
1522641796.75,11656,8.69,71874.8,-12.95,-13.51,-13.51,0,*6A
1522641798.0,11657,8.69,71876.8,-12.95,-13.51,-13.55,0,*6F
1522641799.26,11658,8.69,71872.0,-12.95,-13.51,-13.51,0,*64
1522641800.51,11659,8.69,71874.8,-12.95,-13.51,-13.51,0,*65
1522641801.77,11660,8.69,71876.5,-12.95,-13.51,-13.51,0,*6F
1522641803.01,11661,8.69,71878.0,-12.95,-13.43,-13.51,0,*6D
1522641804.26,11662,8.69,71882.8,-12.95,-13.55,-13.51,0,*69
1522641805.52,11663,8.69,71874.0,-12.95,-13.51,-13.51,0,*6C
1522641806.78,11664,8.69,71874.3,-12.95,-13.51,-13.51,0,*6B
1522641808.02,11665,8.69,71882.3,-12.95,-13.43,-13.43,0,*6A
1522641809.26,11666,8.69,71876.3,-12.95,-13.43,-13.43,0,*69
1522641810.52,11667,8.69,71854.3,-12.95,-13.51,-13.51,0,*68
1522641811.77,11668,8.69,71862.0,-12.95,-13.51,-13.55,0,*63
1522641813.03,11669,8.69,71874.5,-12.95,-13.51,-13.51,0,*66
1522641814.28,11670,8.69,71886.8,-12.95,-13.55,-13.51,0,*6A
1522641815.53,11671,8.69,71902.0,-12.95,-13.43,-13.51,0,*6C
1522641816.78,11672,8.69,71900.0,-12.95,-13.55,-13.51,0,*68
1522641818.03,11673,8.69,71900.8,-12.95,-13.51,-13.51,0,*6D
1522641819.25,11674,8.69,71906.0,-12.97,-13.51,-13.43,0,*6B
1522641820.47,11675,8.69,71906.8,-12.97,-13.43,-13.43,0,*69
1522641821.72,11676,8.69,71878.8,-12.95,-13.51,-13.43,0,*6B
1522641822.97,11677,8.69,71890.5,-12.95,-13.51,-13.51,0,*69
1522641824.22,11678,8.69,71898.3,-12.95,-13.51,-13.43,0,*65
1522641825.48,11679,8.69,71914.3,-12.95,-13.51,-13.51,0,*67
1522641826.74,11680,8.69,71900.8,-12.95,-13.51,-13.51,0,*61
1522641827.98,11681,8.69,71898.8,-12.95,-13.55,-13.55,0,*60
1522641829.23,11682,8.69,71908.0,-12.95,-13.43,-13.51,0,*60
1522641830.49,11683,8.69,71910.3,-12.95,-13.51,-13.55,0,*66
1522641831.74,11684,8.69,71906.0,-12.95,-13.51,-13.43,0,*66
1522641832.99,11685,8.69,71902.5,-12.95,-13.51,-13.43,0,*67
1522641834.24,11686,8.69,71908.0,-12.95,-13.51,-13.51,0,*67
1522641835.49,11687,8.69,71904.8,-12.95,-13.55,-13.51,0,*62
1522641836.74,11688,8.69,71902.3,-12.95,-13.51,-13.43,0,*6A
1522641838.0,11689,8.69,71896.3,-12.95,-13.51,-13.51,0,*68
1522641839.24,11690,8.69,71898.3,-12.95,-13.43,-13.43,0,*60
1522641840.49,11691,8.69,71894.3,-12.95,-13.55,-13.51,0,*65
1522641841.74,11692,8.69,71890.8,-12.95,-13.55,-13.51,0,*66
1522641842.99,11693,8.69,71896.5,-12.95,-13.51,-13.43,0,*60
1522641844.25,11694,8.69,71886.8,-12.95,-13.51,-13.51,0,*64
1522641845.5,11695,8.69,71880.3,-12.95,-13.43,-13.51,0,*66
1522641846.75,11696,8.69,71878.8,-12.95,-13.51,-13.43,0,*65
1522641848.0,11697,8.69,71866.3,-12.95,-13.55,-13.51,0,*63
1522641849.25,11698,8.69,71866.8,-12.95,-13.55,-13.51,0,*6C
1522641850.5,11699,8.69,71868.8,-12.95,-13.51,-13.51,0,*69
1522641851.78,11700,8.69,71864.5,-12.91,-13.51,-13.37,0,*6C
1522641853.03,11701,8.69,71858.8,-12.95,-13.51,-13.43,0,*6A
1522641854.28,11702,8.69,71856.5,-12.95,-13.51,-13.51,0,*6A
1522641855.54,11703,8.69,71856.0,-12.95,-13.51,-13.51,0,*6B
1522641856.79,11704,8.69,71864.0,-12.95,-13.51,-13.51,0,*6C
1522641858.02,11705,8.69,71850.3,-12.97,-13.51,-13.51,0,*6F
1522641859.27,11706,8.69,71858.5,-12.95,-13.51,-13.43,0,*6D
1522641860.51,11707,8.69,71842.0,-12.91,-13.47,-13.51,0,*6C
1522641861.76,11708,8.69,71806.3,-12.95,-13.51,-13.51,0,*60
1522641862.99,11709,8.69,71814.3,-12.97,-13.51,-13.51,0,*63
1522641864.21,11710,8.69,71836.0,-12.97,-13.51,-13.51,0,*6B
1522641865.43,11711,8.69,71814.8,-12.97,-13.43,-13.51,0,*69
1522641866.69,11712,8.69,71794.0,-12.95,-13.51,-13.51,0,*6B
1522641867.91,11713,8.69,71780.3,-12.97,-13.51,-13.51,0,*68
1522641869.14,11714,8.69,71790.0,-12.97,-13.51,-13.51,0,*6F
1522641870.36,11715,8.69,71794.5,-12.97,-13.51,-13.51,0,*6E
1522641871.58,11716,8.69,71792.3,-12.97,-13.55,-13.51,0,*69
1522641872.81,11717,8.69,71802.5,-12.97,-13.51,-13.51,0,*6C
1522641874.06,11718,8.69,71820.0,-12.95,-13.55,-13.51,0,*65
1522641875.28,11719,8.69,71840.8,-12.97,-13.51,-13.51,0,*62
1522641876.51,11720,8.69,71850.5,-12.97,-13.51,-13.51,0,*68
1522641877.73,11721,8.69,71858.0,-12.97,-13.51,-13.51,0,*69
1522641878.96,11722,8.69,71856.8,-12.97,-13.51,-13.51,0,*6A
1522641880.18,11723,8.69,71844.8,-12.97,-13.51,-13.51,0,*6B
1522641881.4,11724,8.69,71854.0,-12.97,-13.55,-13.51,0,*68
1522641882.62,11725,8.69,71856.0,-12.97,-13.51,-13.43,0,*6E
1522641883.84,11726,8.69,71858.3,-12.97,-13.55,-13.43,0,*69
1522641885.06,11727,8.69,71856.5,-12.97,-13.55,-13.51,0,*6B
1522641886.31,11728,8.69,71850.5,-12.95,-13.51,-13.51,0,*62
1522641887.53,11729,8.69,71856.8,-12.97,-13.55,-13.51,0,*65
1522641888.78,11730,8.69,71860.5,-12.95,-13.55,-13.51,0,*6F
1522641890.04,11731,8.69,71838.3,-12.95,-13.51,-13.51,0,*6A
1522641891.26,11732,8.69,71860.3,-12.97,-13.51,-13.51,0,*6B
1522641892.5,11733,8.69,71830.5,-12.99,-13.47,-13.55,0,*67
1522641893.72,11734,8.69,71848.5,-12.97,-13.43,-13.51,0,*6E
1522641894.96,11735,8.69,71856.0,-12.95,-13.55,-13.43,0,*69
1522641896.19,11736,8.69,71856.5,-12.97,-13.51,-13.51,0,*6F
1522641897.41,11737,8.69,71868.8,-12.97,-13.51,-13.51,0,*6E
1522641898.63,11738,8.69,71842.3,-12.97,-13.43,-13.43,0,*61
1522641899.88,11739,8.69,71836.3,-12.97,-13.51,-13.37,0,*60
1522641901.13,11740,8.69,71864.5,-12.95,-13.51,-13.51,0,*6C
1522641902.38,11741,8.69,71866.0,-12.95,-13.51,-13.43,0,*6E
1522641903.64,11742,8.69,71874.5,-12.95,-13.51,-13.51,0,*6E
1522641904.89,11743,8.69,71894.0,-12.95,-13.55,-13.51,0,*6B
1522641906.14,11744,8.69,71902.5,-12.95,-13.43,-13.51,0,*6B
1522641907.39,11745,8.69,71900.3,-12.95,-13.51,-13.55,0,*6D
1522641908.65,11746,8.69,71902.0,-12.95,-13.51,-13.51,0,*6A
1522641909.9,11747,8.69,71902.5,-12.95,-13.51,-13.43,0,*68
1522641911.15,11748,8.69,71902.0,-12.95,-13.51,-13.55,0,*60
1522641912.37,11749,8.69,71902.3,-12.97,-13.51,-13.43,0,*64
1522641913.59,11750,8.69,71906.0,-12.97,-13.51,-13.43,0,*6C
1522641914.82,11751,8.69,71898.3,-12.97,-13.51,-13.51,0,*6E
1522641916.04,11752,8.69,71904.5,-12.97,-13.43,-13.51,0,*6E
1522641917.26,11753,8.69,71906.0,-12.97,-13.51,-13.51,0,*6C
1522641918.49,11754,8.69,71906.3,-12.97,-13.51,-13.51,0,*6B
1522641919.7,11755,8.69,71906.3,-12.97,-13.43,-13.43,0,*6A
1522641920.92,11756,8.69,71896.0,-12.97,-13.51,-13.43,0,*6A
1522641922.15,11757,8.69,71900.3,-12.97,-13.51,-13.55,0,*6C
1522641923.44,11758,8.69,71902.0,-12.99,-13.61,-13.61,0,*69
1522641924.67,11759,8.69,71880.0,-12.97,-13.51,-13.51,0,*66
1522641925.89,11760,8.69,71884.0,-12.97,-13.51,-13.51,0,*6C
1522641927.11,11761,8.69,71896.3,-12.97,-13.51,-13.43,0,*6E
1522641928.33,11762,8.69,71904.0,-12.97,-13.51,-13.43,0,*6D
1522641929.55,11763,8.69,71888.8,-12.97,-13.51,-13.43,0,*6C
1522641930.78,11764,8.69,71888.0,-12.97,-13.51,-13.43,0,*6B
1522641932.0,11765,8.69,71876.8,-12.97,-13.51,-13.51,0,*69
1522641933.23,11766,8.69,71868.3,-12.97,-13.51,-13.51,0,*6A
1522641934.44,11767,8.69,71850.5,-12.97,-13.55,-13.55,0,*6B
1522641935.67,11768,8.69,71852.0,-12.97,-13.51,-13.51,0,*64
1522641936.89,11769,8.69,71866.0,-12.97,-13.51,-13.51,0,*65
1522641938.12,11770,8.69,71856.3,-12.97,-13.51,-13.51,0,*6D
1522641939.35,11771,8.69,71856.5,-12.97,-13.51,-13.51,0,*6C
1522641940.57,11772,8.69,71856.5,-12.97,-13.51,-13.51,0,*6F
1522641941.81,11773,8.69,71854.5,-12.99,-13.55,-13.55,0,*60
1522641943.11,11774,8.69,71858.8,-12.99,-13.61,-13.61,0,*67
1522641944.33,11775,8.69,71868.3,-12.97,-13.51,-13.51,0,*68
1522641945.56,11776,8.69,71876.0,-12.97,-13.51,-13.55,0,*6F
1522641946.78,11777,8.69,71882.5,-12.97,-13.51,-13.51,0,*6A
1522641948.0,11778,8.69,71886.3,-12.97,-13.43,-13.51,0,*66
1522641949.22,11779,8.69,71890.8,-12.97,-13.51,-13.43,0,*67
1522641950.44,11780,8.69,71898.3,-12.97,-13.43,-13.43,0,*62
1522641951.66,11781,8.69,71898.8,-12.97,-13.51,-13.51,0,*63
1522641952.88,11782,8.69,71896.5,-12.97,-13.55,-13.51,0,*64
1522641954.11,11783,8.69,71894.0,-12.97,-13.51,-13.51,0,*61
1522641955.33,11784,8.69,71888.5,-12.97,-13.51,-13.55,0,*62
1522641956.55,11785,8.69,71888.3,-12.97,-13.55,-13.51,0,*63
1522641957.77,11786,8.69,71894.3,-12.97,-13.55,-13.51,0,*60
1522641958.99,11787,8.69,71896.0,-12.97,-13.51,-13.51,0,*65
1522641960.21,11788,8.69,71900.5,-12.97,-13.51,-13.43,0,*69
1522641961.44,11789,8.69,71898.5,-12.97,-13.51,-13.51,0,*6B
1522641962.66,11790,8.69,71888.3,-12.97,-13.43,-13.55,0,*64
1522641963.9,11791,8.69,71886.5,-12.97,-13.51,-13.37,0,*62
1522641965.13,11792,8.69,71890.3,-12.97,-13.51,-13.43,0,*62
1522641966.35,11793,8.69,71872.0,-12.97,-13.51,-13.51,0,*60
1522641967.57,11794,8.69,71852.0,-12.97,-13.55,-13.43,0,*60
1522641968.79,11795,8.69,71836.5,-12.97,-13.51,-13.43,0,*65
1522641970.0,11796,8.69,71840.3,-12.97,-13.43,-13.43,0,*65
1522641971.23,11797,8.69,71852.8,-12.97,-13.51,-13.51,0,*64
1522641972.47,11798,8.69,71864.5,-12.99,-13.55,-13.55,0,*65
1522641973.69,11799,8.69,71870.5,-12.97,-13.51,-13.51,0,*6A
1522641974.92,11800,8.69,71876.5,-12.97,-13.51,-13.51,0,*65
1522641976.14,11801,8.69,71874.3,-12.97,-13.51,-13.43,0,*67
1522641977.38,11802,8.69,71880.0,-12.99,-13.55,-13.43,0,*6E
1522641978.63,11803,8.69,71890.0,-12.95,-13.43,-13.51,0,*67
1522641979.87,11804,8.69,71894.0,-12.95,-13.55,-13.43,0,*64
1522641981.09,11805,8.69,71888.3,-12.97,-13.55,-13.43,0,*67
1522641982.31,11806,8.69,71890.5,-12.97,-13.51,-13.43,0,*60
1522641983.53,11807,8.69,71892.3,-12.97,-13.55,-13.43,0,*65
1522641984.75,11808,8.69,71874.8,-12.97,-13.51,-13.43,0,*6E
1522641985.96,11809,8.69,71880.0,-12.97,-13.55,-13.43,0,*6B
1522641987.18,11810,8.69,71882.5,-12.97,-13.51,-13.43,0,*67
1522641988.42,11811,8.69,71872.5,-12.99,-13.47,-13.55,0,*68
1522641989.64,11812,8.69,71860.5,-12.97,-13.55,-13.43,0,*61
1522641990.85,11813,8.69,71876.8,-12.97,-13.43,-13.43,0,*67
1522641992.06,11814,8.69,71884.3,-12.97,-13.43,-13.43,0,*60
1522641993.31,11815,8.69,71880.0,-12.95,-13.55,-13.51,0,*67
1522641994.53,11816,8.69,71872.5,-12.97,-13.55,-13.51,0,*66
1522641995.75,11817,8.69,71882.3,-12.97,-13.43,-13.51,0,*60
1522641996.97,11818,8.69,71868.8,-12.97,-13.55,-13.55,0,*6C
1522641998.19,11819,8.69,71862.8,-12.97,-13.51,-13.43,0,*6E
1522641999.41,11820,8.69,71858.8,-12.97,-13.51,-13.43,0,*64
1522642000.63,11821,8.69,71838.8,-12.97,-13.43,-13.51,0,*65
1522642001.86,11822,8.69,71852.8,-12.97,-13.51,-13.51,0,*65
1522642003.07,11823,8.69,71862.3,-12.97,-13.43,-13.43,0,*64
1522642004.31,11824,8.69,71852.0,-12.99,-13.55,-13.55,0,*6D
1522642005.53,11825,8.69,71860.8,-12.97,-13.51,-13.43,0,*61
1522642006.76,11826,8.69,71860.5,-12.97,-13.51,-13.51,0,*61
1522642007.98,11827,8.69,71844.0,-12.97,-13.51,-13.55,0,*64
1522642009.23,11828,8.69,71864.5,-12.99,-13.55,-13.55,0,*61
1522642010.49,11829,8.69,71848.5,-12.99,-13.47,-13.37,0,*67
1522642011.71,11830,8.69,71862.8,-12.97,-13.43,-13.51,0,*65
1522642012.93,11831,8.69,71884.5,-12.97,-13.51,-13.43,0,*64
1522642014.15,11832,8.69,71862.8,-12.97,-13.43,-13.55,0,*63
1522642015.37,11833,8.69,71860.0,-12.97,-13.51,-13.55,0,*61
1522642016.59,11834,8.69,71872.0,-12.97,-13.51,-13.43,0,*61
1522642017.82,11835,8.69,71890.3,-12.97,-13.51,-13.55,0,*67
1522642019.08,11836,8.69,71894.8,-12.99,-13.61,-13.47,0,*6A
1522642020.3,11837,8.69,71886.8,-12.97,-13.51,-13.43,0,*62
1522642021.53,11838,8.69,71868.3,-12.99,-13.47,-13.47,0,*60
1522642022.77,11839,8.69,71874.0,-12.95,-13.43,-13.43,0,*6D
1522642024.03,11840,8.69,71854.0,-12.95,-13.51,-13.43,0,*60
1522642025.25,11841,8.69,71854.8,-12.97,-13.51,-13.43,0,*63
1522642026.47,11842,8.63,71840.8,-12.97,-13.51,-13.51,0,*63
1522642027.74,11843,8.69,71882.3,-12.99,-13.61,-13.55,0,*6B
1522642028.96,11844,8.69,71868.5,-12.97,-13.43,-13.51,0,*66
1522642030.2,11845,8.69,71870.5,-12.99,-13.55,-13.55,0,*6A
1522642031.42,11846,8.69,71868.3,-12.97,-13.51,-13.43,0,*64
1522642032.64,11847,8.69,71868.0,-12.97,-13.55,-13.43,0,*61
1522642033.86,11848,8.69,71848.8,-12.97,-13.51,-13.51,0,*69
1522642035.11,11849,8.69,71864.8,-12.99,-13.55,-13.55,0,*66
1522642036.33,11850,8.69,71836.8,-12.97,-13.51,-13.43,0,*63
1522642037.57,11851,8.69,71832.5,-12.99,-13.55,-13.55,0,*6F
1522642038.79,11852,8.69,71834.8,-12.97,-13.55,-13.51,0,*66
1522642040.01,11853,8.69,71846.5,-12.97,-13.51,-13.51,0,*63
1522642041.23,11854,8.69,71830.8,-12.97,-13.43,-13.43,0,*64
1522642042.47,11855,8.69,71856.0,-12.99,-13.47,-13.51,0,*6C
1522642043.71,11856,8.69,71864.8,-12.97,-13.43,-13.37,0,*65
1522642044.93,11857,8.69,71846.0,-12.97,-13.51,-13.51,0,*67
1522642046.16,11858,8.69,71842.5,-12.97,-13.51,-13.43,0,*6B
1522642047.37,11859,8.69,71818.5,-12.97,-13.43,-13.43,0,*69
1522642048.61,11860,8.69,71844.8,-12.99,-13.55,-13.55,0,*6D
1522642049.83,11861,8.69,71836.5,-12.97,-13.43,-13.51,0,*61
1522642051.06,11862,8.69,71854.0,-12.99,-13.47,-13.47,0,*6F
1522642052.31,11863,8.69,71848.3,-12.97,-13.37,-13.51,0,*60
1522642053.53,11864,8.69,71858.0,-12.97,-13.51,-13.43,0,*64
1522642054.76,11865,8.69,71846.8,-12.99,-13.55,-13.47,0,*6B
1522642055.98,11866,8.69,71862.3,-12.97,-13.43,-13.43,0,*65
1522642057.19,11867,8.69,71874.8,-12.97,-13.43,-13.43,0,*64
1522642058.41,11868,8.69,71866.8,-12.97,-13.43,-13.43,0,*6B
1522642059.63,11869,8.63,71872.3,-12.97,-13.51,-13.43,0,*69
1522642060.85,11870,8.63,71882.0,-12.97,-13.51,-13.51,0,*62
1522642062.07,11871,8.63,71880.5,-12.97,-13.51,-13.43,0,*60
1522642063.29,11872,8.69,71882.8,-12.97,-13.43,-13.51,0,*63
1522642064.51,11873,8.63,71876.3,-12.97,-13.51,-13.43,0,*62
1522642065.76,11874,8.69,71868.3,-12.99,-13.55,-13.55,0,*68
1522642066.98,11875,8.69,71868.5,-12.97,-13.51,-13.51,0,*67
1522642068.21,11876,8.69,71860.5,-12.97,-13.51,-13.55,0,*60
1522642069.44,11877,8.69,71848.0,-12.99,-13.47,-13.55,0,*68
1522642070.66,11878,8.63,71844.3,-12.97,-13.43,-13.43,0,*6A
1522642071.89,11879,8.69,71840.5,-12.99,-13.55,-13.47,0,*66
1522642073.11,11880,8.69,71844.0,-12.97,-13.43,-13.43,0,*6D
1522642074.33,11881,8.69,71850.5,-12.97,-13.51,-13.51,0,*6C
1522642075.57,11882,8.69,71860.0,-12.99,-13.43,-13.43,0,*61
1522642076.81,11883,8.69,71866.8,-12.97,-13.55,-13.37,0,*6A
1522642078.03,11884,8.69,71866.3,-12.97,-13.43,-13.43,0,*69
1522642079.25,11885,8.69,71866.5,-12.97,-13.51,-13.43,0,*6B
1522642080.47,11886,8.63,71864.3,-12.97,-13.51,-13.43,0,*68
1522642081.68,11887,8.63,71862.8,-12.97,-13.43,-13.43,0,*6A
1522642082.92,11888,8.69,71860.3,-12.99,-13.47,-13.55,0,*68
1522642084.14,11889,8.69,71884.3,-12.97,-13.43,-13.51,0,*67
1522642085.37,11890,8.69,71882.3,-12.99,-13.47,-13.47,0,*62
1522642086.59,11891,8.69,71884.3,-12.97,-13.55,-13.51,0,*69
1522642087.84,11892,8.63,71880.3,-12.97,-13.51,-13.37,0,*6E
1522642089.06,11893,8.69,71780.3,-12.97,-13.43,-13.43,0,*6F
1522642090.28,11894,8.63,71800.3,-12.97,-13.51,-13.43,0,*6B
1522642091.52,11895,8.63,71772.3,-12.97,-13.37,-13.51,0,*69
1522642092.79,11896,8.69,71792.3,-12.99,-13.47,-13.61,0,*60
1522642094.0,11897,8.69,71814.8,-12.97,-13.43,-13.43,0,*6B
1522642095.22,11898,8.69,71838.5,-12.97,-13.55,-13.51,0,*60